• en France
  • Liste des pays
  • À 7 jours
  • Température de l'eau
  • Carte satellitaire
  • Carte météo
  • Widgets météo
  • user-avatar
    Se connecter

    Météo par heure à Korhogo

    Ce jour, 14 Décembre, Jeudi

    Heure Température Précipitation Vent Pression Humidité
    00:00 +29°C° 0 mm 2 m/s 725 mmHg 32%
    01:00 +28°C° 0 mm 2 m/s 725 mmHg 36%
    02:00 +28°C° 0 mm 1 m/s 725 mmHg 40%
    03:00 +27°C° 0 mm 1 m/s 725 mmHg 43%
    04:00 +26°C° 0 mm 1 m/s 725 mmHg 47%
    05:00 +26°C° 0 mm 1 m/s 725 mmHg 52%
    06:00 +25°C° 0 mm 1 m/s 725 mmHg 56%
    07:00 +27°C° 0 mm 2 m/s 725 mmHg 54%
    08:00 +28°C° 0 mm 2 m/s 726 mmHg 53%
    09:00 +30°C° 0 mm 2 m/s 726 mmHg 51%
    10:00 +34°C° 0 mm 2 m/s 726 mmHg 42%
    11:00 +36°C° 0 mm 1 m/s 726 mmHg 33%
    12:00 +38°C° 0 mm 0 m/s 726 mmHg 25%
    13:00 +40°C° 0 mm 1 m/s 725 mmHg 24%
    14:00 +40°C° 0 mm 1 m/s 724 mmHg 23%
    15:00 +40°C° 0 mm 1 m/s 724 mmHg 22%
    16:00 +39°C° 0 mm 1 m/s 724 mmHg 24%
    17:00 +36°C° 0 mm 1 m/s 724 mmHg 26%
    18:00 +35°C° 0 mm 1 m/s 723 mmHg 28%
    19:00 +34°C° 0 mm 1 m/s 724 mmHg 30%
    20:00 +33°C° 0 mm 1 m/s 724 mmHg 31%
    21:00 +33°C° 0 mm 1 m/s 725 mmHg 32%
    22:00 +32°C° 0 mm 1 m/s 725 mmHg 33%
    23:00 +32°C° 0 mm 1 m/s 725 mmHg 34%

    Demain, 15 Décembre, Vendredi

    Heure Température Précipitation Vent Pression Humidité
    00:00 +32°C° 0 mm 1 m/s 725 mmHg 35%
    01:00 +31°C° 0 mm 1 m/s 725 mmHg 38%
    02:00 +31°C° 0 mm 1 m/s 725 mmHg 40%
    03:00 +30°C° 0 mm 1 m/s 725 mmHg 42%
    04:00 +30°C° 0,1 mm 1 m/s 725 mmHg 44%
    05:00 +29°C° 0,1 mm 1 m/s 725 mmHg 46%
    06:00 +28°C° 0,1 mm 1 m/s 725 mmHg 47%
    07:00 +29°C° 0,1 mm 1 m/s 726 mmHg 44%
    08:00 +31°C° 0,1 mm 1 m/s 726 mmHg 42%
    09:00 +32°C° 0,1 mm 1 m/s 727 mmHg 39%
    10:00 +35°C° 0 mm 2 m/s 726 mmHg 33%
    11:00 +37°C° 0 mm 2 m/s 726 mmHg 28%
    12:00 +38°C° 0 mm 2 m/s 726 mmHg 22%
    13:00 +39°C° 0 mm 2 m/s 725 mmHg 20%
    14:00 +39°C° 0 mm 2 m/s 724 mmHg 19%
    15:00 +39°C° 0 mm 2 m/s 723 mmHg 17%
    16:00 +38°C° 0 mm 2 m/s 723 mmHg 18%
    17:00 +36°C° 0 mm 2 m/s 723 mmHg 20%
    18:00 +34°C° 0 mm 1 m/s 723 mmHg 21%
    19:00 +33°C° 0 mm 1 m/s 724 mmHg 23%
    20:00 +32°C° 0 mm 1 m/s 724 mmHg 25%
    21:00 +30°C° 0 mm 1 m/s 725 mmHg 28%
    22:00 +30°C° 0 mm 1 m/s 725 mmHg 31%
    23:00 +29°C° 0 mm 1 m/s 725 mmHg 33%

    Après-demain, 16 Décembre, Samedi

    Heure Température Précipitation Vent Pression Humidité
    00:00 +28°C° 0 mm 1 m/s 725 mmHg 36%
    01:00 +28°C° 0 mm 1 m/s 724 mmHg 40%
    02:00 +27°C° 0 mm 1 m/s 724 mmHg 44%
    03:00 +27°C° 0 mm 1 m/s 724 mmHg 48%
    04:00 +26°C° 0 mm 1 m/s 724 mmHg 53%
    05:00 +26°C° 0 mm 1 m/s 724 mmHg 58%
    06:00 +25°C° 0 mm 1 m/s 725 mmHg 63%
    07:00 +27°C° 0 mm 1 m/s 725 mmHg 59%
    08:00 +29°C° 0 mm 2 m/s 726 mmHg 56%
    09:00 +30°C° 0 mm 2 m/s 727 mmHg 53%
    10:00 +33°C° 0 mm 1 m/s 726 mmHg 43%
    11:00 +36°C° 0 mm 1 m/s 726 mmHg 33%
    12:00 +40°C° 0 mm 1 m/s 726 mmHg 23%
    13:00 +40°C° 0 mm 1 m/s 725 mmHg 22%
    14:00 +40°C° 0 mm 1 m/s 724 mmHg 21%
    15:00 +39°C° 0 mm 1 m/s 723 mmHg 20%
    16:00 +37°C° 0 mm 1 m/s 723 mmHg 21%
    17:00 +36°C° 0 mm 1 m/s 723 mmHg 22%
    18:00 +34°C° 0 mm 1 m/s 723 mmHg 23%
    19:00 +33°C° 0 mm 1 m/s 724 mmHg 25%
    20:00 +32°C° 0 mm 1 m/s 724 mmHg 27%
    21:00 +29°C° 0 mm 0 m/s 725 mmHg 28%
    22:00 +30°C° 0 mm 1 m/s 725 mmHg 30%
    23:00 +30°C° 0 mm 1 m/s 725 mmHg 32%

    17 Décembre, Dimanche

    Heure Température Précipitation Vent Pression Humidité
    00:00 +29°C° 0 mm 1 m/s 725 mmHg 34%
    01:00 +28°C° 0 mm 1 m/s 725 mmHg 38%
    02:00 +28°C° 0 mm 1 m/s 724 mmHg 42%
    03:00 +27°C° 0 mm 1 m/s 724 mmHg 46%
    04:00 +27°C° 0 mm 1 m/s 724 mmHg 48%
    05:00 +26°C° 0 mm 1 m/s 724 mmHg 50%
    06:00 +26°C° 0 mm 1 m/s 725 mmHg 53%
    07:00 +28°C° 0 mm 1 m/s 725 mmHg 49%
    08:00 +29°C° 0 mm 2 m/s 726 mmHg 46%
    09:00 +31°C° 0 mm 2 m/s 726 mmHg 43%
    10:00 +35°C° 0 mm 2 m/s 726 mmHg 34%
    11:00 +36°C° 0 mm 1 m/s 726 mmHg 25%
    12:00 +40°C° 0 mm 1 m/s 725 mmHg 17%
    13:00 +40°C° 0 mm 1 m/s 724 mmHg 15%
    14:00 +40°C° 0 mm 2 m/s 724 mmHg 14%
    15:00 +41°C° 0 mm 2 m/s 723 mmHg 13%
    16:00 +39°C° 0 mm 1 m/s 723 mmHg 15%
    17:00 +36°C° 0 mm 1 m/s 723 mmHg 16%
    18:00 +35°C° 0 mm 1 m/s 723 mmHg 17%
    19:00 +34°C° 0 mm 1 m/s 723 mmHg 18%
    20:00 +32°C° 0 mm 1 m/s 724 mmHg 18%
    21:00 +31°C° 0 mm 1 m/s 725 mmHg 19%
    22:00 +31°C° 0 mm 1 m/s 725 mmHg 19%
    23:00 +30°C° 0 mm 1 m/s 724 mmHg 19%

    18 Décembre, Lundi

    Heure Température Précipitation Vent Pression Humidité
    00:00 +29°C° 0 mm 1 m/s 724 mmHg 19%
    01:00 +29°C° 0 mm 1 m/s 724 mmHg 21%
    02:00 +28°C° 0 mm 1 m/s 724 mmHg 22%
    03:00 +27°C° 0 mm 1 m/s 723 mmHg 24%
    04:00 +27°C° 0 mm 1 m/s 724 mmHg 27%
    05:00 +26°C° 0 mm 1 m/s 724 mmHg 30%
    06:00 +26°C° 0 mm 1 m/s 724 mmHg 33%
    07:00 +27°C° 0 mm 1 m/s 725 mmHg 34%
    08:00 +29°C° 0 mm 1 m/s 725 mmHg 35%
    09:00 +31°C° 0 mm 2 m/s 726 mmHg 36%
    10:00 +35°C° 0 mm 2 m/s 726 mmHg 31%
    11:00 +36°C° 0 mm 1 m/s 725 mmHg 26%
    12:00 +39°C° 0 mm 1 m/s 725 mmHg 21%
    13:00 +40°C° 0 mm 1 m/s 724 mmHg 19%
    14:00 +40°C° 0 mm 1 m/s 723 mmHg 17%
    15:00 +41°C° 0 mm 1 m/s 723 mmHg 15%
    16:00 +39°C° 0 mm 1 m/s 723 mmHg 16%
    17:00 +36°C° 0 mm 1 m/s 723 mmHg 17%
    18:00 +35°C° 0 mm 1 m/s 722 mmHg 19%
    19:00 +34°C° 0 mm 1 m/s 723 mmHg 19%
    20:00 +32°C° 0 mm 1 m/s 724 mmHg 19%
    21:00 +31°C° 0 mm 1 m/s 724 mmHg 20%
    22:00 +31°C° 0 mm 1 m/s 724 mmHg 23%
    23:00 +30°C° 0 mm 1 m/s 724 mmHg 25%

    19 Décembre, Mardi

    Heure Température Précipitation Vent Pression Humidité
    00:00 +30°C° 0 mm 1 m/s 724 mmHg 28%
    01:00 +29°C° 0 mm 1 m/s 724 mmHg 35%
    02:00 +28°C° 0 mm 1 m/s 724 mmHg 42%
    03:00 +28°C° 0 mm 1 m/s 723 mmHg 49%
    04:00 +27°C° 0 mm 1 m/s 724 mmHg 54%
    05:00 +27°C° 0 mm 1 m/s 724 mmHg 59%
    06:00 +26°C° 0 mm 1 m/s 724 mmHg 64%
    07:00 +28°C° 0 mm 1 m/s 725 mmHg 61%
    08:00 +29°C° 0 mm 2 m/s 726 mmHg 58%
    09:00 +30°C° 0 mm 2 m/s 726 mmHg 55%
    10:00 +34°C° 0 mm 2 m/s 726 mmHg 46%
    11:00 +36°C° 0 mm 2 m/s 726 mmHg 37%
    12:00 +39°C° 0 mm 1 m/s 725 mmHg 28%
    13:00 +40°C° 0 mm 1 m/s 724 mmHg 25%
    14:00 +40°C° 0 mm 1 m/s 724 mmHg 22%
    15:00 +41°C° 0 mm 1 m/s 723 mmHg 19%
    16:00 +39°C° 0 mm 1 m/s 723 mmHg 22%
    17:00 +37°C° 0 mm 1 m/s 723 mmHg 24%
    18:00 +35°C° 0 mm 1 m/s 723 mmHg 26%
    19:00 +34°C° 0 mm 1 m/s 723 mmHg 28%
    20:00 +34°C° 0 mm 1 m/s 724 mmHg 30%
    21:00 +33°C° 0 mm 1 m/s 725 mmHg 33%
    22:00 +32°C° 0,2 mm 2 m/s 724 mmHg 38%
    23:00 +31°C° 0,2 mm 2 m/s 724 mmHg 44%
    Voir plus